Home   Weather   Tehran   Past weeks

Flag for Iran Past Weather in Tehran, Iran — Yesterday and Last 2 Weeks

Now
48 °F

Thundershowers. Passing clouds.


Feels Like: 43 °F
Forecast: 56 / 66 °F
Wind: 14 mph from Northwest

Location: Tehran-Mehrabad

Current Time: Apr 26, 2017 at 5:08:44 am

Latest Report: Apr 26, 2017 at 4:30 am


Visibility: N/A

Pressure: 30.04 "Hg (26.04 "Hg at 1179m altitude)

Humidity: 76%

Dew Point: 41 °F

Location of TehranLocation

Past Weather in Tehran — Graph

°F

Tehran Temperature Yesterday

Maximum temperature yesterday: 81 °F (at 2:30 pm)
Minimum temperature yesterday: 59 °F (at 8:00 pm)
Average temperature yesterday: 69 °F

High & Low Weather Summary for the Past Weeks

 TemperatureHumidityPressure
High84 °F (Apr 23, 3:00 pm)82% (Apr 19, 8:00 am)30.24 "Hg (Apr 19, 8:00 am)
Low48 °F (Apr 26, 4:00 am)7% (Apr 18, 1:30 pm)29.89 "Hg (Apr 19, 5:30 am)
Average69 °F31%30.03 "Hg
* Reported Apr 11 3:30 am — Apr 26 4:00 am, Tehran, Weather by CustomWeather, © 2017

Note: Actual official high and low records may vary slightly from our data, if they occured in-between our weather recording intervals... More about our weather records

Advertising

Tehran Weather History for the Previous 24 Hours

Scroll right to see more
 ConditionsComfort  
Time TempWeatherWind HumidityBarometerVisibility
4:00 am
Wed, Apr 26
48 °FThundershowers. Passing clouds.21 mph76%30.04 "HgN/A
3:30 am63 °FThunderstorms. Passing clouds.12 mph42%30.01 "HgN/A
3:00 am54 °FSprinkles. Passing clouds.12 mph67%30.04 "HgN/A
2:30 am59 °FThunderstorms. Passing clouds.25 mph55%30.04 "HgN/A
2:00 am57 °FPassing clouds.12 mph63%30.04 "HgN/A
1:30 am52 °FPassing clouds.16 mph77%30.04 "HgN/A
1:00 am52 °FPassing clouds.14 mph77%30.01 "HgN/A
12:30 am59 °FPassing clouds.16 mph68%30.01 "HgN/A
11:30 pm
Tue, Apr 25
63 °FPassing clouds.No wind56%30.01 "HgN/A
11:00 pm64 °FPassing clouds.7 mph52%30.01 "HgN/A
10:30 pm64 °FPassing clouds.9 mph49%30.01 "HgN/A
10:00 pm63 °FThunderstorms. Partly cloudy.16 mph56%30.01 "Hg5 mi
9:30 pm59 °FThunderstorms. Partly cloudy.16 mph72%30.04 "Hg4 mi
9:00 pm63 °FThunderstorms. Partly cloudy.14 mph59%30.04 "Hg4 mi
8:30 pm66 °FThunderstorms. Partly cloudy.14 mph52%30.01 "Hg5 mi
8:00 pm59 °FThunderstorms. Broken clouds.18 mph77%29.98 "Hg4 mi
7:30 pm66 °FThunderstorms. Broken clouds.21 mph64%29.98 "HgN/A
7:00 pm68 °FSprinkles. Broken clouds.12 mph49%29.95 "HgN/A
6:30 pm68 °FScattered clouds.9 mph46%29.95 "HgN/A
6:09 pm72 °FThunderstorms. Broken clouds.7 mph36%29.98 "HgN/A
6:00 pm73 °FBroken clouds.7 mph31%29.92 "HgN/A
5:39 pm72 °FBroken clouds.9 mph33%29.92 "HgN/A
5:30 pm73 °FSprinkles. Broken clouds.18 mph38%29.95 "HgN/A
5:00 pm75 °FBroken clouds.7 mph27%29.92 "HgN/A
4:38 pm77 °FThunderstorms. More clouds than sun.9 mph24%29.92 "HgN/A
4:30 pm77 °FBroken clouds.7 mph24%29.92 "HgN/A
4:00 pm77 °FPartly sunny.5 mph24%29.92 "HgN/A
3:30 pm77 °FPartly sunny.No wind22%29.92 "HgN/A
3:00 pm79 °FPartly sunny.No wind21%29.95 "HgN/A
2:30 pm81 °FPartly sunny.No wind18%29.95 "HgN/A
2:00 pm79 °FPartly sunny.No wind21%29.98 "HgN/A
1:30 pm79 °FPartly sunny.No wind21%29.98 "HgN/A
1:00 pm79 °FPartly sunny.No wind21%29.98 "HgN/A
12:30 pm77 °FPartly sunny.No wind24%29.98 "HgN/A
12:00 pm77 °FScattered clouds.No wind22%30.01 "HgN/A
11:30 am73 °FScattered clouds.No wind27%30.01 "HgN/A
11:00 am72 °FScattered clouds.No wind38%30.04 "HgN/A
10:00 am68 °FBroken clouds.No wind49%30.04 "HgN/A
9:30 am66 °FSprinkles. Broken clouds.18 mph49%30.07 "HgN/A
9:00 am68 °FBroken clouds.No wind46%30.01 "HgN/A
8:30 am68 °FBroken clouds.No wind46%30.01 "HgN/A
8:00 am68 °FScattered clouds.5 mph43%30.01 "HgN/A
7:30 am64 °FScattered clouds.5 mph52%30.01 "HgN/A
7:00 am64 °FSprinkles. Scattered clouds.5 mph52%30.01 "HgN/A
6:30 am64 °FPassing clouds.5 mph52%29.98 "HgN/A
5:30 am63 °FPassing clouds.5 mph56%29.98 "HgN/A
5:00 am61 °FPassing clouds.5 mph59%29.98 "HgN/A
Weather by CustomWeather, © 2017

See weather overviewHow to use our weather pages